Location: Kailua
(21.4020°N, 157.7390°W)
Time: 10:31:05
(UTC-10:00)

Daily predictions for brighter satellites

Satellite Brightness Start Highest point End
(mag) Time Altitude Azimuth Time Altitude Azimuth Time Altitude Azimuth
Cosmos 1782 3.1 18:05:57 10° S 18:09:58 73° W 18:13:58 10° N
Cosmos 2034 Rocket 4.4 18:05:43 10° SSE 18:11:43 45° E 18:17:43 10° NNE
GPS 2-18 Rocket1 4.4 18:08:58 10° W 18:12:47 40° SSW 18:16:32 10° ESE
Meteor 2-6 Rocket 4.1 18:09:00 10° S 18:14:23 77° E 18:19:53 10° N
Okean 2 Rocket 4.2 18:10:51 10° NNE 18:14:27 23° E 18:18:02 10° SE
Cosmos 2082 Rocket 3.1 18:10:42 10° N 18:15:24 27° ENE 18:20:04 10° SE
ISS -3.7 18:14:06 10° SSW 18:17:20 60° SE 18:20:33 10° NE
Gblst 52 Del rocket 4.2 18:13:21 10° SW 18:18:49 82° NW 18:24:31 10° NE
Cosmos 1908 Rocket 3.6 18:14:36 10° N 18:18:56 88° W 18:23:15 10° S
SKYMED 2 3.5 18:17:59 10° NNE 18:22:19 75° E 18:26:38 10° S
GPS 2-14 Rocket1 2.8 18:19:21 10° W 18:23:31 78° S 18:27:24 11° E
Okean 1-7 3.7 18:22:06 10° SSW 18:26:23 58° W 18:30:42 10° N
Meteor 1-20 Rocket 4.2 18:22:34 10° N 18:28:04 87° W 18:33:31 10° S
SPOT 3 Rocket 4.3 18:25:15 10° SE 18:29:43 30° ENE 18:34:11 10° NNE
GPS 2-12 Rocket1 3.3 18:32:20 10° W 18:37:09 71° S 18:41:13 14° ESE
USA 229 DEB 3.6 18:30:39 10° SSW 18:37:21 79° ESE 18:44:09 10° NNE
USA 229 3.6 18:30:46 10° SSW 18:37:27 78° ESE 18:44:14 10° NNE
FENGYUN 3A 4.3 18:32:47 10° SE 18:37:31 31° ENE 18:42:14 10° NNE
Cosmos 1464 Rocket 4.3 18:32:16 10° SSW 18:38:21 69° W 18:44:26 10° N
Cosmos 292 Rocket 4.5 18:36:41 10° N 18:40:52 30° ENE 18:45:01 10° SE
Meteor 1-27 Rocket 4.0 18:44:33 10° S 18:50:24 79° W 18:56:21 10° N
ARIANE 5 R/B 4.4 18:51:23 10° SSW 18:55:02 22° SSE 19:04:41 10° ESE
Cosmos 405 3.0 18:51:37 10° N 18:55:08 55° E 18:58:38 10° SSE
Cosmos 44 3.9 18:51:12 10° N 18:55:36 34° ENE 18:59:19 14° ESE
SL-27 R/B 4.2 18:52:37 10° NW 18:55:41 33° W 18:58:47 10° SSW
YAOGAN 1 3.3 18:54:24 10° S 18:58:37 56° W 19:02:52 10° NNW
Cosmos 1777 Rocket 4.1 18:53:53 10° S 18:59:01 56° ESE 19:02:47 18° NNE
Cosmos 2369 Rocket 2.2 18:53:43 10° S 18:59:14 57° ESE 19:03:10 19° NNE
ALOS 2.2 18:55:36 10° SSE 19:00:11 58° ENE 19:04:45 10° N
Delta 7925 Rocket 3.8 18:56:32 10° WSW 19:02:02 85° SSE 19:05:46 28° ENE
NOAA 12 4.1 18:57:14 10° SSE 19:02:28 61° ENE 19:07:41 10° N
Delta 142 4.5 18:57:41 10° SW 19:02:59 42° SSE 19:04:49 29° ESE
BREEZE-M TANK 3.7 19:01:32 10° SW 19:05:29 82° SE 19:15:16 18° NE
Cosmos 1833 Rocket 2.6 19:00:48 10° NNW 19:06:26 90° WSW 19:12:04 10° SSE
Cosmos 1812 3.5 19:06:46 10° SSE 19:09:31 34° SE 19:09:31 34° SE
Cosmos 2084 Rocket 4.0 19:06:24 10° SW 19:10:51 58° WNW 19:13:27 22° N
Thor Agena Rocket 3.4 19:06:41 14° NNE 19:11:10 73° ESE 19:16:20 10° S
Delta 168 3.8 19:11:15 10° W 19:15:56 59° N 19:18:13 38° ENE
Cosmos 540 Rocket 4.1 19:11:05 10° NNW 19:16:07 56° WSW 19:21:07 10° S
ERS-2 4.0 19:17:15 10° SSW 19:20:34 32° W 19:23:52 10° NW
Cosmos 1943 Rocket 2.2 19:17:28 10° S 19:22:51 55° ESE 19:23:52 48° ENE
Palapa 6 Rocket 3.9 19:20:23 10° WSW 19:25:45 60° SSE 19:27:35 43° ESE
Okean 3 3.4 19:27:07 10° S 19:31:17 78° W 19:31:48 66° NNW
Cosmos 2151 Rocket 4.1 19:35:19 10° NNW 19:39:39 57° W 19:44:00 10° S
Cosmos 2279 Rocket 4.2 19:33:42 10° SSE 19:38:47 49° ESE 19:38:47 49° ESE
CZ-4C R/B 3.0 19:41:12 10° NNW 19:48:46 58° ENE 19:49:00 58° ENE
Cosmos 1634 Rocket 4.3 19:45:29 10° SSW 19:51:32 61° W 19:56:26 16° N
Cosmos 2082 Rocket 4.3 19:54:42 10° NW 19:59:15 26° WSW 20:03:48 10° SSW
IUS-9 SRM-1 3.5 19:45:28 10° WNW 20:01:53 81° NNW 20:01:53 81° NNW
NOSS 3-1 (C) 4.3 20:00:11 10° SW 20:05:17 39° WNW 20:06:20 36° NW
Timation 2 Rocket 4.5 20:13:18 10° NNW 20:18:58 56° WNW 20:18:58 56° WNW
CZ-3A R/B 3.4 20:14:10 10° NW 20:30:06 - SSE 20:20:35 68° WSW
